Location: Caltech
(34.1382°N, 118.1253°W)
Time: 16:33:00
(UTC-08:00)

Lacrosse 5 - Visible Passes

Search period start: 11 December 2017 00:00
Search period end: 21 December 2017 00:00
Orbit: 715 x 723 km, 57.0° (Epoch: 04 December)

Date Brightness Start Highest point End Pass type
(mag) Time Alt. Az. Time Alt. Az. Time Alt. Az.
11 Dec 4.3 17:54:48 10° WNW 17:58:52 25° WSW 18:02:56 10° S visible
13 Dec 5.4 17:53:19 10° W 17:55:05 12° WSW 17:56:51 10° SW visible
15 Dec 5.2 05:41:42 10° SE 05:44:04 13° ESE 05:46:26 10° E visible
17 Dec 4.1 05:36:04 10° S 05:40:18 27° ESE 05:44:33 10° ENE visible
18 Dec 5.0 04:45:08 10° SE 04:47:26 13° ESE 04:49:43 10° E visible
18 Dec 1.8 06:24:44 10° SW 06:29:47 75° NW 06:34:52 10° NE visible
19 Dec 2.6 05:31:43 10° SSW 05:36:39 55° SE 05:41:36 10° NE visible
20 Dec 3.9 04:39:26 10° S 04:43:40 27° ESE 04:47:53 10° ENE visible
20 Dec 2.3 06:21:40 10° WSW 06:26:26 40° NW 06:31:11 10° NNE visible
